Location: Poughquag
(41.6090°N, 73.6820°W)
Time: 03:23:25
(UTC-04:00)

Vanguard 2 - Pass Details

Date: 30 May 2020
Orbit: 552 x 2938 km, 32.9° (Epoch: 06 July)

Event Time Altitude Azimuth Distance (km) Brightness Sun altitude
Rises 17:33:52 0° 207° (SSW) 6,562 12.5 28.8°
Reaches altitude 10° 17:40:04 10° 194° (SSW) 5,252 12.0 27.6°
Maximum altitude 17:49:43 21° 153° (SSE) 3,727 10.9 25.8°
Drops below altitude 10° 17:57:05 10° 110° (ESE) 3,892 10.6 24.5°
Sets 18:00:42 0° 94° (E) 4,501 10.9 23.8°
